ALK116 VRMM-VCBI

Flight info

Callsign ALK116
Flight time 1h 15m
Altitude 37000
Route HOKEY1A HOKEY M512 TELIG LALUM1A
Aircraft A320/M-SDE3FGHIRWY/LB1

Departure

Time 2026-04-27 09:43
Airport Velana International Airport (VRMM)

Arrival

Time 2026-04-27 10:58
Airport Bandaranaike International Colombo Airport (VCBI)
Time Latitude Longitude Altitude Speed Heading
2026-04-27 09:28 4.18350 73.52787 12 ft 0 kts 269°
2026-04-27 09:33 4.18350 73.52791 12 ft 3 kts 269°
2026-04-27 09:33 4.18350 73.52818 12 ft 4 kts 269°
2026-04-27 09:33 4.18350 73.52843 12 ft 4 kts 291°
2026-04-27 09:34 4.18334 73.52858 14 ft 4 kts 348°
2026-04-27 09:34 4.18316 73.52860 12 ft 0 kts 359°
2026-04-27 09:36 4.18336 73.52860 14 ft 5 kts 358°
2026-04-27 09:37 4.18374 73.52859 12 ft 7 kts 358°
2026-04-27 09:37 4.18424 73.52857 12 ft 7 kts 359°
2026-04-27 09:37 4.18461 73.52860 12 ft 4 kts
2026-04-27 09:37 4.18484 73.52879 13 ft 5 kts 63°
2026-04-27 09:38 4.18486 73.52894 12 ft 1 kts 86°
2026-04-27 09:38 4.18485 73.52902 12 ft 2 kts 91°
2026-04-27 09:38 4.18489 73.52916 14 ft 2 kts 69°
2026-04-27 09:38 4.18504 73.52925 14 ft 3 kts 19°
2026-04-27 09:39 4.18526 73.52926 12 ft 3 kts 359°
2026-04-27 09:39 4.18545 73.52937 14 ft 3 kts 47°
2026-04-27 09:39 4.18550 73.52956 12 ft 3 kts 84°
2026-04-27 09:39 4.18548 73.52978 12 ft 4 kts 93°
2026-04-27 09:40 4.18548 73.52985 12 ft 0 kts 92°
2026-04-27 09:41 4.18548 73.52994 13 ft 4 kts 92°
2026-04-27 09:41 4.18547 73.53051 13 ft 11 kts 89°
2026-04-27 09:41 4.18602 73.53104 13 ft 13 kts
2026-04-27 09:41 4.18662 73.53102 13 ft 0 kts
2026-04-27 09:42 4.18784 73.53102 13 ft 51 kts 360°
2026-04-27 09:42 4.19371 73.53101 13 ft 115 kts 360°
2026-04-27 09:42 4.20345 73.53099 13 ft 163 kts 359°
2026-04-27 09:42 4.21571 73.53098 322 ft 181 kts 358°
2026-04-27 09:43 4.22835 73.53093 1013 ft 181 kts 356°
2026-04-27 09:43 4.24084 73.53069 1799 ft 178 kts 357°
2026-04-27 09:43 4.25302 73.53028 2386 ft 177 kts 355°
2026-04-27 09:43 4.26581 73.52984 2705 ft 193 kts 359°
2026-04-27 09:44 4.28006 73.52995 2970 ft 217 kts 360°
2026-04-27 09:44 4.29606 73.53021 3242 ft 242 kts
2026-04-27 09:44 4.31375 73.53045 3647 ft 264 kts 360°
2026-04-27 09:44 4.33241 73.53064 4417 ft 271 kts
2026-04-27 09:45 4.35139 73.53078 5263 ft 274 kts
2026-04-27 09:45 4.37057 73.53085 6104 ft 277 kts
2026-04-27 09:45 4.38982 73.53226 6884 ft 280 kts 15°
2026-04-27 09:45 4.40710 73.54117 7603 ft 284 kts 41°
2026-04-27 09:46 4.41875 73.55710 8348 ft 288 kts 68°
2026-04-27 09:46 4.42229 73.57680 9115 ft 291 kts 89°
2026-04-27 09:46 4.42229 73.59714 9883 ft 293 kts 89°
2026-04-27 09:46 4.42217 73.61792 10328 ft 308 kts 90°
2026-04-27 09:47 4.42206 73.64013 10485 ft 329 kts 90°
2026-04-27 09:47 4.42198 73.66346 10947 ft 338 kts 89°
2026-04-27 09:47 4.42195 73.68716 11553 ft 342 kts 89°
2026-04-27 09:47 4.42194 73.71108 12185 ft 345 kts 89°
2026-04-27 09:48 4.42196 73.73516 12827 ft 347 kts 89°
2026-04-27 09:48 4.42225 73.75942 13468 ft 349 kts 85°
2026-04-27 09:48 4.42613 73.78317 14034 ft 351 kts 77°
2026-04-27 09:48 4.43161 73.80712 14573 ft 354 kts 77°
2026-04-27 09:49 4.43713 73.83127 15110 ft 357 kts 77°
2026-04-27 09:49 4.44277 73.85591 15655 ft 360 kts 77°
2026-04-27 09:49 4.44837 73.88044 16175 ft 362 kts 77°
2026-04-27 09:49 4.45392 73.90481 16695 ft 365 kts 77°
2026-04-27 09:50 4.45958 73.92972 17214 ft 368 kts 77°
2026-04-27 09:50 4.46527 73.95482 17740 ft 371 kts 77°
2026-04-27 09:50 4.47102 73.98012 18233 ft 374 kts 77°
2026-04-27 09:50 4.47682 74.00562 18678 ft 376 kts 77°
2026-04-27 09:51 4.48269 74.03127 19135 ft 379 kts 77°
2026-04-27 09:51 4.48856 74.05710 19598 ft 382 kts 77°
2026-04-27 09:51 4.49445 74.08312 20066 ft 384 kts 77°
2026-04-27 09:51 4.50041 74.10929 20535 ft 387 kts 77°
2026-04-27 09:52 4.50644 74.13567 21001 ft 390 kts 77°
2026-04-27 09:52 4.51252 74.16224 21464 ft 392 kts 77°
2026-04-27 09:52 4.51862 74.18900 21930 ft 395 kts 77°
2026-04-27 09:52 4.52475 74.21595 22397 ft 398 kts 76°
2026-04-27 09:53 4.53092 74.24305 22844 ft 401 kts 76°
2026-04-27 09:53 4.53711 74.27038 23285 ft 403 kts 76°
2026-04-27 09:53 4.54351 74.29782 23658 ft 406 kts 75°
2026-04-27 09:53 4.55102 74.32519 24011 ft 408 kts 73°
2026-04-27 09:54 4.55942 74.35246 24353 ft 411 kts 72°
2026-04-27 09:54 4.56834 74.37979 24692 ft 414 kts 71°
2026-04-27 09:54 4.57743 74.40723 25026 ft 416 kts 72°
2026-04-27 09:54 4.58645 74.43487 25354 ft 419 kts 72°
2026-04-27 09:55 4.59536 74.46275 25682 ft 421 kts 73°
2026-04-27 09:55 4.60417 74.49085 26005 ft 424 kts 73°
2026-04-27 09:55 4.62165 74.54761 26624 ft 429 kts 74°
2026-04-27 09:56 4.63045 74.57625 26923 ft 431 kts 74°
2026-04-27 09:56 4.63931 74.60501 27216 ft 433 kts 74°
2026-04-27 09:56 4.64826 74.63393 27508 ft 436 kts 74°
2026-04-27 09:56 4.65731 74.66302 27791 ft 438 kts 74°
2026-04-27 09:57 4.66638 74.69226 28083 ft 440 kts 74°
2026-04-27 09:57 4.67548 74.72164 28375 ft 443 kts 74°
2026-04-27 09:57 4.68461 74.75118 28669 ft 445 kts 75°
2026-04-27 09:57 4.69380 74.78089 28963 ft 447 kts 75°
2026-04-27 09:58 4.70304 74.81076 29254 ft 450 kts 75°
2026-04-27 09:58 4.71235 74.84077 29546 ft 452 kts 75°
2026-04-27 09:58 4.72170 74.87095 29832 ft 455 kts 75°
2026-04-27 09:58 4.73111 74.90130 30080 ft 457 kts 75°
2026-04-27 09:59 4.74055 74.93177 30321 ft 459 kts 75°
2026-04-27 09:59 4.75004 74.96236 30567 ft 460 kts 75°
2026-04-27 09:59 4.75953 74.99308 30813 ft 462 kts 75°
2026-04-27 09:59 4.76899 75.02377 31155 ft 461 kts 75°
2026-04-27 10:00 4.77842 75.05441 31523 ft 459 kts 75°
2026-04-27 10:00 4.78465 75.07465 31770 ft 459 kts 75°
2026-04-27 10:00 4.79409 75.10521 32101 ft 459 kts 76°
2026-04-27 10:00 4.80355 75.13569 32443 ft 459 kts 76°
2026-04-27 10:01 4.81304 75.16625 32794 ft 458 kts 76°
2026-04-27 10:01 4.82250 75.19674 33152 ft 458 kts 76°
2026-04-27 10:01 4.83191 75.22718 33519 ft 457 kts 76°
2026-04-27 10:01 4.84133 75.25761 33875 ft 457 kts 76°
2026-04-27 10:02 4.85073 75.28801 34193 ft 456 kts 76°
2026-04-27 10:02 4.86012 75.31834 34520 ft 455 kts 76°
2026-04-27 10:02 4.86949 75.34857 34848 ft 454 kts 76°
2026-04-27 10:02 4.87880 75.37871 35174 ft 452 kts 76°
2026-04-27 10:03 4.88808 75.40883 35492 ft 451 kts 76°
2026-04-27 10:03 4.89733 75.43886 35748 ft 451 kts 75°
2026-04-27 10:03 4.91580 75.49869 35814 ft 448 kts 75°
2026-04-27 10:04 4.93426 75.55837 35815 ft 448 kts 75°
2026-04-27 10:04 4.95269 75.61805 35816 ft 448 kts 75°
2026-04-27 10:05 4.97114 75.67766 35810 ft 448 kts 75°
2026-04-27 10:05 4.98951 75.73736 35811 ft 448 kts 75°
2026-04-27 10:06 5.00784 75.79705 35809 ft 448 kts 75°
2026-04-27 10:06 5.02627 75.85694 35810 ft 450 kts 75°
2026-04-27 10:07 5.04468 75.91695 35812 ft 450 kts 75°
2026-04-27 10:07 5.06302 75.97695 35813 ft 450 kts 75°
2026-04-27 10:08 5.08146 76.03700 35813 ft 450 kts 75°
2026-04-27 10:08 5.09990 76.09697 35814 ft 450 kts 75°
2026-04-27 10:09 5.11831 76.15704 35810 ft 451 kts 75°
2026-04-27 10:09 5.13678 76.21718 35811 ft 451 kts 74°
2026-04-27 10:10 5.15518 76.27689 35813 ft 451 kts 74°
2026-04-27 10:10 5.17372 76.33707 35813 ft 451 kts 74°
2026-04-27 10:11 5.19220 76.39718 35814 ft 450 kts 75°
2026-04-27 10:11 5.21058 76.45705 35813 ft 449 kts 75°
2026-04-27 10:12 5.22888 76.51687 35815 ft 448 kts 74°
2026-04-27 10:12 5.24716 76.57633 35813 ft 445 kts 74°
2026-04-27 10:13 5.26532 76.63569 35814 ft 445 kts 75°
2026-04-27 10:13 5.28345 76.69507 35813 ft 445 kts 74°
2026-04-27 10:14 5.30171 76.75438 35814 ft 445 kts 74°
2026-04-27 10:14 5.31992 76.81375 35814 ft 445 kts 75°
2026-04-27 10:15 5.33809 76.87312 35812 ft 445 kts 75°
2026-04-27 10:15 5.35623 76.93230 35812 ft 443 kts 75°
2026-04-27 10:16 5.37430 76.99144 35813 ft 443 kts 75°
2026-04-27 10:16 5.39239 77.05056 35813 ft 443 kts 75°
2026-04-27 10:17 5.41046 77.10974 35816 ft 443 kts 75°
2026-04-27 10:17 5.42834 77.16850 35817 ft 443 kts 75°
2026-04-27 10:18 5.44640 77.22764 35813 ft 443 kts 75°
2026-04-27 10:18 5.46458 77.28682 35814 ft 443 kts 74°
2026-04-27 10:19 5.48269 77.34601 35816 ft 443 kts 75°
2026-04-27 10:19 5.50061 77.40520 35817 ft 444 kts 74°
2026-04-27 10:20 5.51861 77.46444 35816 ft 444 kts 74°
2026-04-27 10:20 5.53668 77.52364 35815 ft 444 kts 74°
2026-04-27 10:21 5.55481 77.58282 35816 ft 444 kts 74°
2026-04-27 10:21 5.57292 77.64219 35815 ft 446 kts 74°
2026-04-27 10:22 5.59104 77.70167 35815 ft 445 kts 74°
2026-04-27 10:22 5.60904 77.76102 35815 ft 444 kts 74°
2026-04-27 10:23 5.62706 77.82035 35815 ft 444 kts 74°
2026-04-27 10:23 5.64511 77.87962 35760 ft 444 kts 74°
2026-04-27 10:24 5.65413 77.90929 35523 ft 445 kts 74°
2026-04-27 10:24 5.66315 77.93901 35287 ft 446 kts 74°
2026-04-27 10:24 5.67226 77.96886 35057 ft 447 kts 72°
2026-04-27 10:24 5.68430 77.99762 34823 ft 448 kts 63°
2026-04-27 10:25 5.70090 78.02418 34594 ft 450 kts 53°
2026-04-27 10:25 5.72039 78.04875 34367 ft 450 kts 52°
2026-04-27 10:25 5.73995 78.07320 34142 ft 449 kts 52°
2026-04-27 10:25 5.75943 78.09762 33918 ft 448 kts 52°
2026-04-27 10:26 5.77883 78.12199 33674 ft 446 kts 52°
2026-04-27 10:26 5.79813 78.14631 33424 ft 445 kts 52°
2026-04-27 10:26 5.81737 78.17052 33170 ft 443 kts 52°
2026-04-27 10:26 5.83658 78.19464 32919 ft 441 kts 52°
2026-04-27 10:27 5.85567 78.21866 32672 ft 439 kts 52°
2026-04-27 10:27 5.87466 78.24259 32432 ft 437 kts 52°
2026-04-27 10:27 5.89358 78.26642 32180 ft 435 kts 52°
2026-04-27 10:27 5.91242 78.29014 31938 ft 434 kts 52°
2026-04-27 10:28 5.93091 78.31344 31704 ft 432 kts 52°
2026-04-27 10:28 5.94962 78.33700 31464 ft 430 kts 52°
2026-04-27 10:28 5.96823 78.36043 31223 ft 429 kts 52°
2026-04-27 10:28 5.98680 78.38377 30994 ft 428 kts 52°
2026-04-27 10:29 6.00535 78.40712 30765 ft 427 kts 52°
2026-04-27 10:29 6.02384 78.43040 30537 ft 425 kts 52°
2026-04-27 10:29 6.04225 78.45366 30307 ft 424 kts 52°
2026-04-27 10:29 6.06058 78.47681 30084 ft 423 kts 52°
2026-04-27 10:30 6.07887 78.49990 29848 ft 421 kts 52°
2026-04-27 10:30 6.09709 78.52286 29583 ft 420 kts 52°
2026-04-27 10:30 6.11528 78.54573 29318 ft 418 kts 52°
2026-04-27 10:30 6.13385 78.56809 29056 ft 416 kts 47°
2026-04-27 10:31 6.15514 78.58775 28797 ft 415 kts 39°
2026-04-27 10:31 6.17795 78.60544 28548 ft 414 kts 39°
2026-04-27 10:31 6.20065 78.62309 28291 ft 412 kts 39°
2026-04-27 10:31 6.22322 78.64069 28033 ft 410 kts 39°
2026-04-27 10:32 6.24567 78.65821 27781 ft 408 kts 39°
2026-04-27 10:32 6.26805 78.67569 27540 ft 406 kts 39°
2026-04-27 10:32 6.29032 78.69309 27295 ft 405 kts 39°
2026-04-27 10:32 6.31246 78.71042 27047 ft 403 kts 39°
2026-04-27 10:34 6.41642 78.79369 25902 ft 391 kts 47°
2026-04-27 10:34 6.43391 78.81452 25672 ft 389 kts 52°
2026-04-27 10:34 6.45081 78.83570 25441 ft 388 kts 52°
2026-04-27 10:34 6.46759 78.85661 25212 ft 386 kts 52°
2026-04-27 10:35 6.48445 78.87756 24988 ft 384 kts 52°
2026-04-27 10:35 6.50120 78.89839 24764 ft 383 kts 51°
2026-04-27 10:35 6.51792 78.91917 24541 ft 381 kts 51°
2026-04-27 10:35 6.53456 78.93987 24322 ft 380 kts 51°
2026-04-27 10:36 6.55110 78.96045 24101 ft 378 kts 51°
2026-04-27 10:36 6.56760 78.98101 23881 ft 377 kts 51°
2026-04-27 10:36 6.58401 79.00148 23667 ft 375 kts 51°
2026-04-27 10:36 6.60035 79.02186 23452 ft 374 kts 51°
2026-04-27 10:37 6.61666 79.04218 23204 ft 372 kts 51°
2026-04-27 10:37 6.63284 79.06242 22946 ft 371 kts 52°
2026-04-27 10:37 6.64886 79.08270 22694 ft 369 kts 52°
2026-04-27 10:37 6.66473 79.10296 22436 ft 368 kts 52°
2026-04-27 10:38 6.68050 79.12318 22186 ft 367 kts 52°
2026-04-27 10:38 6.69621 79.14331 21931 ft 365 kts 52°
2026-04-27 10:38 6.71190 79.16336 21680 ft 363 kts 52°
2026-04-27 10:38 6.72742 79.18317 21307 ft 359 kts 52°
2026-04-27 10:39 6.74277 79.20276 20870 ft 357 kts 52°
2026-04-27 10:39 6.75812 79.22236 20416 ft 355 kts 52°
2026-04-27 10:39 6.77336 79.24180 20008 ft 353 kts 52°
2026-04-27 10:39 6.78833 79.26087 19615 ft 351 kts 52°
2026-04-27 10:40 6.80340 79.28005 19203 ft 349 kts 52°
2026-04-27 10:40 6.81838 79.29913 18808 ft 347 kts 52°
2026-04-27 10:40 6.83327 79.31810 18415 ft 345 kts 53°
2026-04-27 10:40 6.84808 79.33699 18022 ft 343 kts 53°
2026-04-27 10:41 6.86280 79.35580 17585 ft 341 kts 53°
2026-04-27 10:41 6.87742 79.37445 17160 ft 338 kts 53°
2026-04-27 10:41 6.89193 79.39297 16748 ft 336 kts 52°
2026-04-27 10:41 6.90636 79.41139 16342 ft 334 kts 52°
2026-04-27 10:42 6.92067 79.42969 15936 ft 332 kts 53°
2026-04-27 10:42 6.93527 79.44758 15527 ft 331 kts 47°
2026-04-27 10:42 6.95260 79.46267 15137 ft 329 kts 39°
2026-04-27 10:42 6.97061 79.47686 14752 ft 328 kts 39°
2026-04-27 10:43 6.98851 79.49096 14377 ft 326 kts 39°
2026-04-27 10:43 7.00630 79.50496 14010 ft 324 kts 39°
2026-04-27 10:43 7.02397 79.51890 13653 ft 322 kts 39°
2026-04-27 10:43 7.04151 79.53277 13248 ft 320 kts 39°
2026-04-27 10:44 7.05897 79.54659 12863 ft 318 kts 39°
2026-04-27 10:44 7.07627 79.56030 12467 ft 316 kts 39°
2026-04-27 10:44 7.09351 79.57397 12086 ft 315 kts 39°
2026-04-27 10:44 7.11068 79.58756 11695 ft 313 kts 39°
2026-04-27 10:45 7.12771 79.60104 11345 ft 310 kts 39°
2026-04-27 10:45 7.14465 79.61442 10985 ft 309 kts 39°
2026-04-27 10:45 7.16144 79.62768 10732 ft 303 kts 39°
2026-04-27 10:45 7.17778 79.64060 10577 ft 294 kts 39°
2026-04-27 10:46 7.19379 79.65326 10291 ft 291 kts 39°
2026-04-27 10:46 7.20967 79.66586 9977 ft 290 kts 39°
2026-04-27 10:46 7.22548 79.67836 9680 ft 288 kts 39°
2026-04-27 10:46 7.24122 79.69082 9306 ft 288 kts 39°
2026-04-27 10:47 7.25690 79.70324 9036 ft 286 kts 39°
2026-04-27 10:47 7.27246 79.71559 8788 ft 284 kts 39°
2026-04-27 10:47 7.28796 79.72791 8539 ft 283 kts 39°
2026-04-27 10:47 7.30329 79.74010 8294 ft 278 kts 39°
2026-04-27 10:48 7.31837 79.75208 8051 ft 274 kts 39°
2026-04-27 10:48 7.33324 79.76385 7809 ft 270 kts 39°
2026-04-27 10:48 7.34796 79.77549 7570 ft 268 kts 39°
2026-04-27 10:48 7.36258 79.78705 7332 ft 266 kts 39°
2026-04-27 10:49 7.37714 79.79857 7092 ft 266 kts 39°
2026-04-27 10:49 7.39154 79.81021 6853 ft 265 kts 44°
2026-04-27 10:49 7.40151 79.82512 6631 ft 261 kts 72°
2026-04-27 10:49 7.40288 79.84337 6396 ft 261 kts 101°
2026-04-27 10:50 7.39545 79.85966 6171 ft 264 kts 124°
2026-04-27 10:50 7.38471 79.87470 5929 ft 264 kts 125°
2026-04-27 10:50 7.37400 79.88966 5665 ft 262 kts 124°
2026-04-27 10:50 7.36337 79.90453 5398 ft 261 kts 124°
2026-04-27 10:51 7.35120 79.91801 5132 ft 261 kts 140°
2026-04-27 10:51 7.33694 79.92913 4859 ft 258 kts 141°
2026-04-27 10:51 7.32271 79.94025 4525 ft 259 kts 142°
2026-04-27 10:51 7.30693 79.94894 4176 ft 261 kts 160°
2026-04-27 10:52 7.28899 79.95213 3753 ft 265 kts 180°
2026-04-27 10:52 7.27075 79.94908 3348 ft 269 kts 200°
2026-04-27 10:52 7.25440 79.93995 2977 ft 270 kts 220°
2026-04-27 10:52 7.24386 79.92493 2910 ft 258 kts 250°
2026-04-27 10:53 7.24176 79.90749 2814 ft 248 kts 274°
2026-04-27 10:53 7.25917 79.88092 2605 ft 232 kts 336°
2026-04-27 10:53 7.27482 79.87865 2383 ft 230 kts
2026-04-27 10:54 7.28897 79.88530 2158 ft 225 kts 43°
2026-04-27 10:54 7.29688 79.89844 1919 ft 220 kts 79°
2026-04-27 10:54 7.29608 79.91336 1668 ft 213 kts 114°
2026-04-27 10:54 7.28873 79.92571 1541 ft 198 kts 136°
2026-04-27 10:55 7.27839 79.93345 1486 ft 173 kts 158°
2026-04-27 10:55 7.26760 79.93676 1496 ft 150 kts 176°
2026-04-27 10:55 7.25775 79.93678 1428 ft 137 kts 193°
2026-04-27 10:55 7.24863 79.93422 1309 ft 135 kts 206°
2026-04-27 10:56 7.24072 79.92940 1162 ft 134 kts 219°
2026-04-27 10:56 7.23329 79.92371 1004 ft 135 kts 220°
2026-04-27 10:56 7.22583 79.91800 840 ft 136 kts 217°
2026-04-27 10:56 7.21838 79.91230 690 ft 134 kts 220°
2026-04-27 10:57 7.21099 79.90664 520 ft 134 kts 217°
2026-04-27 10:57 7.20341 79.90087 355 ft 137 kts 217°
2026-04-27 10:57 7.19591 79.89515 174 ft 134 kts 218°
2026-04-27 10:57 7.18869 79.88954 40 ft 124 kts 216°
2026-04-27 10:58 7.18290 79.88510 27 ft 81 kts 218°
2026-04-27 10:58 7.17981 79.88275 29 ft 27 kts 215°
2026-04-27 10:58 7.17900 79.88220 29 ft 11 kts 197°
2026-04-27 10:58 7.17833 79.88263 29 ft 14 kts 128°
2026-04-27 10:59 7.17799 79.88354 28 ft 12 kts 67°
2026-04-27 10:59 7.17853 79.88403 28 ft 8 kts 48°
2026-04-27 10:59 7.17840 79.88460 27 ft 10 kts 129°
2026-04-27 11:00 7.17821 79.88556 27 ft 8 kts 37°
2026-04-27 11:00 7.17849 79.88575 27 ft 0 kts 35°
2026-04-27 11:00 7.17851 79.88577 27 ft 2 kts 36°
2026-04-27 11:00 7.17857 79.88582 27 ft 0 kts 37°